Retour au catalogue

CZ-3A R/B

ActifGTO
NORAD 33464·ROCKET BODY·🇨🇳 China

Lancé Dec 23, 2008 depuis Xichang Satellite Launch Center

Loading…

TLE

VieillissantSource: Space-Track

Époque: Sep 14, 2026, 07:35 UTC

1 33464U 08066B   26257.31651975  .00000127  00000-0  10042-2 0  9998
2 33464  24.5933 190.0156 7149767   8.0890 358.9423  2.34415035150306

Suivez CZ-3A R/B en temps réel avec AllMySat

Download on the App Store